Regional Weather Roundup
Issued by NWS

Home | Current Version | Previous Version | Graphics & Text | Print | Product List | Glossary On
Versions: 1 2 3 4 5 6 7 8 9 10 11 12 13 14 15 16 17 18 19 20 21 22 23 24 25 26 27 28
000
ASUS45 KSLC 220110
RWRUT

UTAH REGIONAL WEATHER ROUNDUP
NATIONAL WEATHER SERVICE SALT LAKE CITY UT
600 PM MST TUE FEB 21 2017

UTZ001>011-023>025-220200-

NORTHERN UTAH

CITY           SKY/WX    TMP DP  RH WIND       PRES   REMARKS
BRIGHAM CITY     N/A     42  34  74 NW21G31   30.04R
HILL AFB       LGT RAIN  41  37  87 NW24G30   29.99R FOG
LOGAN          RAIN      39  34  82 N15       30.04R WCI  31
OGDEN          RAIN      41  37  86 N20G28    30.00R FOG
SALT LAKE CITY LGT RAIN  45  39  79 NW24G30   30.01R
TOOELE VALLEY  LGT RAIN  43  39  87 NW24G32   30.04R
WENDOVER       CLOUDY    43  28  56 NW14      30.01R
HEBER CITY     CLOUDY    54  28  37 SW26G35   29.90F
WEST JORDAN    CLOUDY    47  42  85 NW33G39   30.00R

$$

UTZ011>015-024>027-220200-

CENTRAL/NORTHEAST UTAH

CITY           SKY/WX    TMP DP  RH WIND       PRES   REMARKS
PROVO AIRPORT  CLOUDY    56  35  45 SW21G29   29.96S
MOAB/CANYONLAN CLOUDY    59  36  42 S22G30    30.01F
DELTA          CLEAR     54  32  43 S24G31    30.00F
PRICE          MOCLDY    45  40  82 NW6       30.01F
RICHFIELD      CLEAR     55  25  30 S24       30.04S
ROOSEVELT      CLEAR     52  37  58 W8        29.98F
VERNAL         CLOUDY    49  35  58 S10       29.96F

$$

UTZ013>016-019>022-027-220200-

SOUTHERN UTAH

CITY           SKY/WX    TMP DP  RH WIND       PRES   REMARKS
BRYCE CANYON   CLOUDY    41  30  65 SW20G26   30.21F
CEDAR CITY     CLOUDY    50  33  52 S31G39    30.11R
MILFORD        PTCLDY    53  35  50 SW22G37   30.06R
ST GEORGE      MOCLDY    62  45  53 S9        30.11F
HANKSVILLE     MOCLDY    59  34  38 SW10G25   30.05F
KANAB          PTCLDY    54  41  62 SW3       30.21F
BLANDING       CLOUDY    53  37  55 S6        30.27F

$$

REGIONAL REPORTS     COLORADO/ARIZONA

CITY           SKY/WX    TMP DP  RH WIND       PRES   REMARKS
CRAIG, CO      CLOUDY    50  28  42 SW14G25   29.98F
GRAND JUNCTION CLOUDY    55  39  54 SE8       30.06F
RIFLE, CO      CLOUDY    53  35  50 W8        30.05F
MONTROSE, CO   CLOUDY    55  29  36 SW18G28   30.13F
CORTEZ, CO     CLOUDY    53  39  59 CALM      30.22S
COLORADO CITY    N/A     55  43  62 SW7       30.20F
PAGE, AZ       CLOUDY    63  33  32 SW7       30.14F
GRAND CANYON   LGT RAIN  44  41  89 SW9       30.30F
KINGMAN, AZ    CLOUDY    59  43  55 W8        30.20F
FLAGSTAFF, AZ  CLOUDY    50  41  71 SW14      30.32R

$$

REGIONAL REPORTS    NEVADA/IDAHO/WYOMING

CITY           SKY/WX    TMP DP  RH WIND       PRES   REMARKS
LAS VEGAS, NV  MOCLDY    67  38  34 SW13G20   30.09R
ELY, NY        CLOUDY    48  27  44 S23G37    29.98S
ELKO, NV       FLURRIES  35  31  85 SW12      30.06R WCI  27
POCATELLO, ID  CLOUDY    39  31  72 SW10      29.96S WCI  32
BURLEY, ID     CLOUDY    44  28  53 SW9       29.95F
FORT BRIDGER,  MOCLDY    42  31  62 SW28G48   29.92S
EVANSTON, WY   LGT RAIN  36  31  82 W24G35    29.93R WCI  24
ROCK SPRINGS,  CLOUDY    45  27  49 SW30G38   29.86F
KEMMERER, WY   LGT SNOW  32  30  93 NW26      29.93R WCI  18

$$




USA.gov is the U.S. government's official web portal to all federal, state and local government web resources and services.